Location: Ostrava
(49.8330°N, 18.2830°E)
Time: 09:09:01
(UTC+01:00)

Cosmos 2219 Rocket - Visible Passes

Search period start: 24 February 2017 00:00
Search period end: 06 March 2017 00:00
Orbit: 830 x 845 km, 71.0° (Epoch: 23 February)

Date Brightness Start Highest point End Pass type
(mag) Time Alt. Az. Time Alt. Az. Time Alt. Az.
24 Feb 2.1 19:18:19 10° NNW 19:23:56 77° ENE 19:26:30 34° SE visible
24 Feb 4.2 21:03:19 10° NW 21:07:16 20° W 21:08:16 19° WSW visible
25 Feb 2.1 19:01:57 10° NNW 19:07:35 72° ENE 19:11:22 21° SE visible
25 Feb 4.3 20:46:51 10° NW 20:50:58 21° W 20:53:09 17° SW visible
26 Feb 2.1 18:45:37 10° NNW 18:51:13 68° ENE 18:56:25 12° SE visible
26 Feb 4.2 20:30:23 10° NW 20:34:40 23° WSW 20:38:13 13° SSW visible
27 Feb 2.2 18:29:17 10° NNW 18:34:51 64° ENE 18:40:25 10° SE visible
27 Feb 4.2 20:13:56 10° NW 20:18:21 24° WSW 20:22:47 10° SSW visible
28 Feb 2.2 18:12:56 10° NNW 18:18:30 60° ENE 18:24:02 10° SE visible
28 Feb 4.1 19:57:29 10° NW 20:02:03 26° WSW 20:06:38 10° SSW visible
01 Mar 2.3 17:56:35 10° NNW 18:02:08 56° NE 18:07:38 10° SE visible
01 Mar 4.1 19:41:04 10° NW 19:45:46 28° WSW 19:50:27 10° SSW visible
02 Mar 4.0 19:24:39 10° NW 19:29:27 30° WSW 19:34:15 10° SSW visible
03 Mar 4.0 19:08:14 10° NW 19:13:09 32° WSW 19:18:03 10° SSW visible
04 Mar 3.9 18:51:49 10° NW 18:56:50 34° WSW 19:01:50 10° S visible
05 Mar 3.8 18:35:25 10° NW 18:40:31 37° WSW 18:45:36 10° S visible
